Location: Aranbee
(34.0885°N, 118.2342°W)
Time: 09:45:17
(UTC+00:00)

Courier 1B Rocket - Pass Details

Date: 03 December 2020
Orbit: 920 x 1202 km, 28.2° (Epoch: 27 January)

Event Time Altitude Azimuth Distance (km) Brightness Sun altitude
Rises 16:11:42 0° 270° (W) 4,095 7.8 14.6°
Reaches altitude 10° 16:14:51 10° 262° (W) 3,122 7.3 15.0°
Maximum altitude 16:21:42 35° 201° (SSW) 1,805 6.9 16.1°
Drops below altitude 10° 16:28:18 10° 138° (SE) 2,999 10.1 17.1°
Sets 16:31:17 0° 130° (SE) 3,915 9.9 17.6°
